Location: Aldenham
(51.6667°N, 0.3500°W)
Time: 18:14:54
(UTC+00:00)

Vanguard 2 - Visible Passes

Search period start: 18 February 2026 00:00
Search period end: 28 February 2026 00:00
Orbit: 553 x 2897 km, 32.9° (Epoch: 17 February)

Date Brightness Start Highest point End Pass type
(mag) Time Alt. Az. Time Alt. Az. Time Alt. Az.
23 Feb 10.0 05:27:26 10° SSW 05:28:59 11° S 05:30:24 10° S visible
24 Feb 10.4 03:34:57 11° SSE 03:34:57 11° SSE 03:35:47 10° SSE visible
24 Feb 10.0 05:38:31 10° SSW 05:40:36 12° S 05:42:28 10° SSE visible
25 Feb 10.2 03:46:05 14° SSE 03:46:05 14° SSE 03:48:34 10° SE visible
25 Feb 10.0 05:50:00 10° SSW 05:52:12 12° SSW 05:54:09 10° S visible
26 Feb 10.1 03:57:11 16° S 03:57:11 16° S 04:00:48 10° SE visible
26 Feb 10.0 06:01:48 10° SW 06:03:46 11° SSW 06:05:32 10° S visible
27 Feb 10.0 04:08:15 17° S 04:08:34 17° S 04:12:47 10° SE visible
27 Feb 10.0 06:14:05 10° SW 06:15:17 11° SSW 06:16:24 10° SSW visible
